When you browse on this site, cookies collect data to enhance your experience and personalize the content and advertising you see.
Visit our Privacy Policy to learn more. By continuing to use the site, you agree to this use of cookies and data.

Stündliche Wetter Bolshie Hutora

Heute, 23 September, Mittwoch

Zeit Temperatur Niederschläge Wind Luftdruck Luftfeuchtigkeit
00:00 +12°C° 0 mm 5 m/S 746 mmHg 79%
01:00 +12°C° 0 mm 5 m/S 746 mmHg 82%
02:00 +10°C° 0 mm 5 m/S 747 mmHg 85%
03:00 +11°C° 0 mm 4 m/S 747 mmHg 88%
04:00 +11°C° 0 mm 4 m/S 747 mmHg 90%
05:00 +10°C° 0 mm 4 m/S 747 mmHg 92%
06:00 +10°C° 0 mm 4 m/S 747 mmHg 95%
07:00 +11°C° 0 mm 4 m/S 748 mmHg 90%
08:00 +12°C° 0 mm 4 m/S 748 mmHg 85%
09:00 +14°C° 0 mm 4 m/S 748 mmHg 80%
10:00 +15°C° 0 mm 4 m/S 748 mmHg 73%
11:00 +18°C° 0 mm 4 m/S 748 mmHg 65%
12:00 +19°C° 0 mm 4 m/S 748 mmHg 58%
13:00 +20°C° 0 mm 4 m/S 748 mmHg 56%
14:00 +20°C° 0 mm 3 m/S 749 mmHg 55%
15:00 +20°C° 0 mm 3 m/S 749 mmHg 53%
16:00 +19°C° 0 mm 3 m/S 749 mmHg 59%
17:00 +17°C° 0 mm 2 m/S 749 mmHg 64%
18:00 +16°C° 0 mm 1 m/S 749 mmHg 69%
19:00 +15°C° 0 mm 1 m/S 749 mmHg 72%
20:00 +15°C° 0 mm 1 m/S 750 mmHg 74%
21:00 +13°C° 0 mm 0 m/S 750 mmHg 76%
22:00 +13°C° 0 mm 0 m/S 750 mmHg 78%
23:00 +13°C° 0 mm 1 m/S 750 mmHg 79%

Morgen, 24 September, Donnerstag

Zeit Temperatur Niederschläge Wind Luftdruck Luftfeuchtigkeit
00:00 +13°C° 0 mm 1 m/S 750 mmHg 80%
01:00 +13°C° 0 mm 1 m/S 750 mmHg 83%
02:00 +12°C° 0 mm 1 m/S 751 mmHg 85%
03:00 +12°C° 0 mm 1 m/S 751 mmHg 87%
04:00 +12°C° 0 mm 1 m/S 751 mmHg 88%
05:00 +10°C° 0 mm 2 m/S 751 mmHg 89%
06:00 +10°C° 0 mm 2 m/S 751 mmHg 90%
07:00 +13°C° 0 mm 2 m/S 752 mmHg 84%
08:00 +14°C° 0 mm 2 m/S 752 mmHg 78%
09:00 +16°C° 0 mm 2 m/S 752 mmHg 72%
10:00 +17°C° 0 mm 2 m/S 752 mmHg 65%
11:00 +19°C° 0 mm 2 m/S 752 mmHg 59%
12:00 +20°C° 0 mm 3 m/S 752 mmHg 52%
13:00 +21°C° 0 mm 3 m/S 752 mmHg 50%
14:00 +21°C° 0 mm 3 m/S 752 mmHg 49%
15:00 +21°C° 0 mm 3 m/S 752 mmHg 47%
16:00 +20°C° 0 mm 2 m/S 752 mmHg 52%
17:00 +18°C° 0 mm 2 m/S 752 mmHg 57%
18:00 +17°C° 0 mm 2 m/S 751 mmHg 63%
19:00 +16°C° 0 mm 2 m/S 752 mmHg 68%
20:00 +14°C° 0 mm 3 m/S 752 mmHg 72%
21:00 +14°C° 0 mm 3 m/S 752 mmHg 77%
22:00 +13°C° 0 mm 3 m/S 752 mmHg 77%
23:00 +13°C° 0 mm 3 m/S 752 mmHg 77%

übermorgen, 25 September, Freitag

Zeit Temperatur Niederschläge Wind Luftdruck Luftfeuchtigkeit
00:00 +13°C° 0 mm 3 m/S 753 mmHg 76%
01:00 +12°C° 0 mm 3 m/S 753 mmHg 73%
02:00 +12°C° 0 mm 3 m/S 753 mmHg 70%
03:00 +11°C° 0 mm 3 m/S 753 mmHg 67%
04:00 +11°C° 0 mm 3 m/S 753 mmHg 66%
05:00 +10°C° 0 mm 3 m/S 753 mmHg 66%
06:00 +10°C° 0 mm 3 m/S 753 mmHg 65%
07:00 +12°C° 0 mm 3 m/S 753 mmHg 60%
08:00 +13°C° 0 mm 4 m/S 753 mmHg 56%
09:00 +14°C° 0 mm 4 m/S 753 mmHg 51%
10:00 +17°C° 0 mm 4 m/S 753 mmHg 48%
11:00 +18°C° 0 mm 4 m/S 753 mmHg 45%
12:00 +19°C° 0 mm 4 m/S 753 mmHg 42%
13:00 +19°C° 0 mm 4 m/S 753 mmHg 41%
14:00 +20°C° 0 mm 4 m/S 753 mmHg 40%
15:00 +20°C° 0 mm 4 m/S 753 mmHg 39%
16:00 +18°C° 0 mm 4 m/S 753 mmHg 43%
17:00 +17°C° 0 mm 3 m/S 753 mmHg 48%
18:00 +14°C° 0 mm 3 m/S 753 mmHg 52%
19:00 +14°C° 0 mm 3 m/S 753 mmHg 53%
20:00 +13°C° 0 mm 3 m/S 753 mmHg 53%
21:00 +12°C° 0 mm 3 m/S 753 mmHg 54%
22:00 +12°C° 0 mm 3 m/S 753 mmHg 55%
23:00 +12°C° 0 mm 3 m/S 753 mmHg 57%

26 September, Samstag

Zeit Temperatur Niederschläge Wind Luftdruck Luftfeuchtigkeit
00:00 +11°C° 0 mm 3 m/S 753 mmHg 58%
01:00 +11°C° 0 mm 3 m/S 753 mmHg 58%
02:00 +11°C° 0 mm 3 m/S 753 mmHg 59%
03:00 +10°C° 0 mm 3 m/S 753 mmHg 59%
04:00 +10°C° 0 mm 3 m/S 753 mmHg 60%
05:00 +10°C° 0 mm 3 m/S 753 mmHg 61%
06:00 +9°C° 0 mm 3 m/S 753 mmHg 62%
07:00 +11°C° 0 mm 3 m/S 753 mmHg 59%
08:00 +12°C° 0 mm 4 m/S 753 mmHg 57%
09:00 +13°C° 0 mm 4 m/S 753 mmHg 54%
10:00 +15°C° 0 mm 4 m/S 753 mmHg 50%
11:00 +18°C° 0 mm 4 m/S 753 mmHg 46%
12:00 +19°C° 0 mm 5 m/S 753 mmHg 42%
13:00 +20°C° 0 mm 5 m/S 753 mmHg 42%
14:00 +20°C° 0 mm 5 m/S 753 mmHg 42%
15:00 +21°C° 0 mm 4 m/S 753 mmHg 42%
16:00 +19°C° 0 mm 4 m/S 753 mmHg 47%
17:00 +18°C° 0 mm 4 m/S 753 mmHg 51%
18:00 +16°C° 0 mm 3 m/S 753 mmHg 56%
19:00 +15°C° 0 mm 4 m/S 753 mmHg 55%
20:00 +14°C° 0 mm 4 m/S 754 mmHg 55%
21:00 +14°C° 0 mm 4 m/S 754 mmHg 54%
22:00 +13°C° 0 mm 4 m/S 754 mmHg 54%
23:00 +13°C° 0 mm 4 m/S 754 mmHg 53%

27 September, Sonntag

Zeit Temperatur Niederschläge Wind Luftdruck Luftfeuchtigkeit
00:00 +12°C° 0 mm 4 m/S 754 mmHg 52%
01:00 +12°C° 0 mm 4 m/S 755 mmHg 53%
02:00 +11°C° 0 mm 4 m/S 755 mmHg 53%
03:00 +11°C° 0 mm 4 m/S 755 mmHg 53%
04:00 +10°C° 0 mm 4 m/S 755 mmHg 54%
05:00 +10°C° 0 mm 4 m/S 755 mmHg 54%
06:00 +10°C° 0 mm 4 m/S 755 mmHg 55%
07:00 +11°C° 0 mm 4 m/S 755 mmHg 53%
08:00 +12°C° 0 mm 4 m/S 755 mmHg 51%
09:00 +13°C° 0 mm 5 m/S 756 mmHg 49%
10:00 +14°C° 0 mm 5 m/S 756 mmHg 46%
11:00 +15°C° 0 mm 5 m/S 756 mmHg 43%
12:00 +17°C° 0 mm 6 m/S 756 mmHg 40%
13:00 +17°C° 0 mm 6 m/S 756 mmHg 39%
14:00 +17°C° 0 mm 6 m/S 755 mmHg 39%
15:00 +17°C° 0 mm 6 m/S 755 mmHg 38%
16:00 +16°C° 0 mm 5 m/S 755 mmHg 41%
17:00 +15°C° 0 mm 5 m/S 755 mmHg 44%
18:00 +14°C° 0 mm 4 m/S 755 mmHg 47%
19:00 +13°C° 0 mm 4 m/S 755 mmHg 48%
20:00 +13°C° 0 mm 4 m/S 755 mmHg 49%
21:00 +12°C° 0 mm 5 m/S 755 mmHg 50%
22:00 +12°C° 0 mm 5 m/S 755 mmHg 49%
23:00 +12°C° 0 mm 5 m/S 755 mmHg 49%

28 September, Montag

Zeit Temperatur Niederschläge Wind Luftdruck Luftfeuchtigkeit
00:00 +11°C° 0 mm 4 m/S 756 mmHg 49%
01:00 +11°C° 0 mm 4 m/S 756 mmHg 49%
02:00 +11°C° 0 mm 4 m/S 756 mmHg 49%
03:00 +11°C° 0 mm 4 m/S 756 mmHg 49%
04:00 +10°C° 0 mm 5 m/S 756 mmHg 50%
05:00 +9°C° 0 mm 5 m/S 755 mmHg 50%
06:00 +9°C° 0 mm 5 m/S 755 mmHg 50%
07:00 +10°C° 0 mm 6 m/S 755 mmHg 48%
08:00 +11°C° 0 mm 6 m/S 755 mmHg 46%
09:00 +12°C° 0 mm 7 m/S 755 mmHg 44%
10:00 +14°C° 0 mm 7 m/S 755 mmHg 41%
11:00 +16°C° 0 mm 7 m/S 755 mmHg 38%
12:00 +17°C° 0 mm 7 m/S 755 mmHg 35%
13:00 +17°C° 0 mm 7 m/S 755 mmHg 35%
14:00 +17°C° 0 mm 7 m/S 755 mmHg 35%
15:00 +17°C° 0 mm 6 m/S 755 mmHg 35%
16:00 +16°C° 0.1 mm 5 m/S 755 mmHg 41%
17:00 +15°C° 0.1 mm 4 m/S 755 mmHg 47%
18:00 +13°C° 0.1 mm 4 m/S 755 mmHg 52%
19:00 +13°C° 0.1 mm 4 m/S 755 mmHg 55%
20:00 +13°C° 0.1 mm 4 m/S 755 mmHg 58%
21:00 +12°C° 0.1 mm 4 m/S 755 mmHg 61%
22:00 +12°C° 0 mm 4 m/S 755 mmHg 59%
23:00 +12°C° 0 mm 4 m/S 755 mmHg 56%
Mehr zeigen